Weather History for Visalia, CA

Change the Weather History Date:

Wednesday, November 7, 2012

  Actual Average Record
Temperature  
Mean Temperature 64 °F -  
Max Temperature 80 °F 70 °F 90 °F (1949)
Min Temperature 48 °F 46 °F 32 °F (1947)
Degree Days  
Heating Degree Days 1    
Growing Degree Days 14 (Base 50)    
Moisture  
Dew Point 49 °F    
Average Humidity 64    
Maximum Humidity 88    
Minimum Humidity 39    
Precipitation  
Precipitation 0.00 in - - ()
Sea Level Pressure  
Sea Level Pressure 29.98 in    
Wind  
Wind Speed 1 mph (SSE)    
Max Wind Speed 7 mph    
Max Gust Speed -    
Visibility 6 miles    
Events      
Averages and records for this station are not official NWS values.
T = Trace of Precipitation, MM = Missing Value Source: NWS Daily Summary

Daily Weather History Graph

Daily Weather History Graph

Search for Another Location

Airport:

Trip Planner

Search our weather history database for the weather conditions in past years. The results will help you decide how hot, cold, wet, or windy it might be!

Date:

Astronomy

Nov. 07, 2012 Rise Set
Actual Time 6:27 AM PST 4:54 PM PST
Civil Twilight 6:00 AM PST 5:21 PM PST
Nautical Twilight 5:29 AM PST 5:52 PM PST
Astronomical Twilight 4:59 AM PST 6:22 PM PST
Moon No Moon Rise 12:56 PM PST (11/7)
Length of Visible Light 11h 21m
Length of Day
10h 27m
Last Quarter, 42% of the Moon is Illuminated
Nov 7
Last Quarter
Nov 13
New
Nov 20
First Quarter
Nov 28
Full
Dec 6
Last Quarter

Hourly Weather History & Observations

Time (PST) Temp. Heat Index Dew Point Humidity Pressure Visibility Wind Dir Wind Speed Gust Speed Precip Events Conditions
12:15 AM 53.6 °F - 48.2 °F 82% 30.05 in 5.0 mi Calm Calm - N/A   Clear
12:55 AM 53.6 °F - 48.2 °F 82% 30.04 in 4.0 mi Calm Calm - N/A   Clear
1:15 AM 51.8 °F - 44.6 °F 76% 30.04 in 4.0 mi Calm Calm - N/A   Clear
1:35 AM 53.6 °F - 46.4 °F 77% 30.04 in 5.0 mi Calm Calm - N/A   Clear
1:55 AM 51.8 °F - 46.4 °F 82% 30.04 in 3.0 mi Calm Calm - N/A   Clear
2:15 AM 53.6 °F - 48.2 °F 82% 30.03 in 4.0 mi Calm Calm - N/A   Clear
2:35 AM 53.6 °F - 46.4 °F 77% 30.03 in 5.0 mi Calm Calm - N/A   Clear
2:55 AM 53.6 °F - 46.4 °F 77% 30.03 in 5.0 mi Calm Calm - N/A   Clear
3:15 AM 51.8 °F - 44.6 °F 76% 30.02 in 4.0 mi Calm Calm - N/A   Clear
3:35 AM 50.0 °F - 44.6 °F 82% 30.02 in 4.0 mi Calm Calm - N/A   Clear
3:55 AM 51.8 °F - 48.2 °F 88% 30.02 in 3.0 mi Calm Calm - N/A   Clear
4:15 AM 51.8 °F - 46.4 °F 82% 30.02 in 4.0 mi Calm Calm - N/A   Clear
4:35 AM 50.0 °F - 46.4 °F 87% 30.03 in 5.0 mi ESE 3.5 mph - N/A   Clear
4:55 AM 48.2 °F - 44.6 °F 87% 30.03 in 5.0 mi ESE 3.5 mph - N/A   Clear
5:15 AM 48.2 °F - 42.8 °F 82% 30.03 in 5.0 mi SSE 4.6 mph - N/A   Clear
5:35 AM 48.2 °F - 42.8 °F 82% 30.03 in 6.0 mi Calm Calm - N/A   Clear
5:55 AM 50.0 °F - 44.6 °F 82% 30.03 in 7.0 mi SE 3.5 mph - N/A   Clear
6:15 AM 48.2 °F - 42.8 °F 82% 30.04 in 7.0 mi ESE 3.5 mph - N/A   Clear
6:35 AM 51.8 °F - 44.6 °F 76% 30.04 in 5.0 mi Calm Calm - N/A   Clear
6:55 AM 50.0 °F - 44.6 °F 82% 30.04 in 5.0 mi Calm Calm - N/A   Clear
7:15 AM 51.8 °F - 44.6 °F 76% 30.05 in 6.0 mi East 3.5 mph - N/A   Clear
7:35 AM 53.6 °F - 46.4 °F 77% 30.05 in 7.0 mi Calm Calm - N/A   Clear
7:55 AM 55.4 °F - 48.2 °F 77% 30.05 in 7.0 mi ESE 3.5 mph - N/A   Clear
8:15 AM 59.0 °F - 48.2 °F 67% 30.05 in 5.0 mi SE 3.5 mph - N/A   Clear
8:35 AM 60.8 °F - 48.2 °F 63% 30.05 in 7.0 mi Calm Calm - N/A   Clear
8:55 AM 62.6 °F - 50.0 °F 63% 30.05 in 6.0 mi SE 5.8 mph - N/A   Clear
9:15 AM 64.4 °F - 51.8 °F 64% 30.05 in 5.0 mi SSE 6.9 mph - N/A   Clear
9:35 AM 66.2 °F - 51.8 °F 60% 30.05 in 6.0 mi SSE 4.6 mph - N/A   Clear
9:55 AM 68.0 °F - 51.8 °F 56% 30.04 in 6.0 mi SSE 4.6 mph - N/A   Clear
10:15 AM 69.8 °F - 51.8 °F 53% 30.04 in 5.0 mi Calm Calm - N/A   Clear
10:35 AM 71.6 °F - 51.8 °F 50% 30.03 in 5.0 mi SW 3.5 mph - N/A   Clear
10:55 AM 71.6 °F - 53.6 °F 53% 30.03 in 5.0 mi SSW 3.5 mph - N/A   Clear
11:15 AM 75.2 °F - 53.6 °F 47% 30.02 in 5.0 mi WNW 4.6 mph - N/A   Clear
11:35 AM 75.2 °F - 51.8 °F 44% 30.01 in 5.0 mi West 4.6 mph - N/A   Clear
11:55 AM 77.0 °F - 51.8 °F 41% 30.00 in 5.0 mi NW 4.6 mph - N/A   Clear
12:15 PM 77.0 °F - 53.6 °F 44% 29.99 in 4.0 mi West 4.6 mph - N/A   Clear
12:35 PM 78.8 °F - 53.6 °F 42% 29.97 in 7.0 mi WSW 5.8 mph - N/A   Clear
12:55 PM 78.8 °F - 53.6 °F 42% 29.96 in 7.0 mi NW 3.5 mph - N/A   Clear
1:15 PM 78.8 °F - 53.6 °F 42% 29.96 in 7.0 mi West 6.9 mph - N/A   Clear
1:35 PM 80.6 °F 80.3 °F 53.6 °F 39% 29.95 in 5.0 mi WNW 5.8 mph - N/A   Clear
1:55 PM 78.8 °F - 53.6 °F 42% 29.94 in 5.0 mi Calm Calm - N/A   Clear
2:15 PM 78.8 °F - 53.6 °F 42% 29.94 in 7.0 mi NNE 3.5 mph - N/A   Clear
2:35 PM 78.8 °F - 53.6 °F 42% 29.93 in 7.0 mi SW 3.5 mph - N/A   Clear
2:55 PM 80.6 °F 80.3 °F 53.6 °F 39% 29.92 in 7.0 mi Calm Calm - N/A   Clear
3:15 PM 80.6 °F 80.3 °F 53.6 °F 39% 29.92 in 7.0 mi Calm Calm - N/A   Clear
3:35 PM 78.8 °F - 51.8 °F 39% 29.92 in 8.0 mi Calm Calm - N/A   Clear
3:55 PM 80.6 °F 80.3 °F 53.6 °F 39% 29.92 in 8.0 mi Calm Calm - N/A   Clear
4:15 PM 78.8 °F - 51.8 °F 39% 29.91 in 8.0 mi Calm Calm - N/A   Clear
4:35 PM 77.0 °F - 51.8 °F 41% 29.91 in 7.0 mi Calm Calm - N/A   Clear
4:55 PM - - - N/A% 29.91 in 7.0 mi Calm Calm - N/A   Clear
5:15 PM 73.4 °F - 51.8 °F 47% 29.91 in 8.0 mi Calm Calm - N/A   Clear
5:35 PM 71.6 °F - 51.8 °F 50% 29.91 in 8.0 mi Calm Calm - N/A   Clear
5:55 PM - - - N/A% 29.91 in 8.0 mi Calm Calm - N/A   Clear
6:15 PM 68.0 °F - 51.8 °F 56% 29.91 in 8.0 mi WNW 3.5 mph - N/A   Clear
6:35 PM 66.2 °F - 50.0 °F 56% 29.92 in 7.0 mi NW 3.5 mph - N/A   Clear
6:55 PM 66.2 °F - 51.8 °F 60% 29.92 in 8.0 mi NW 3.5 mph - N/A   Clear
7:15 PM 64.4 °F - 50.0 °F 59% 29.92 in 8.0 mi Calm Calm - N/A   Clear
7:35 PM 62.6 °F - 48.2 °F 59% 29.92 in 7.0 mi Calm Calm - N/A   Clear
7:55 PM 60.8 °F - 50.0 °F 68% 29.91 in 7.0 mi Calm Calm - N/A   Clear
8:15 PM 59.0 °F - 48.2 °F 67% 29.92 in 7.0 mi Calm Calm - N/A   Clear
8:35 PM 59.0 °F - 48.2 °F 67% 29.91 in 7.0 mi Calm Calm - N/A   Clear
8:55 PM 57.2 °F - 48.2 °F 72% 29.92 in 7.0 mi ENE 3.5 mph - N/A   Clear
9:15 PM 57.2 °F - 48.2 °F 72% 29.92 in 7.0 mi East 3.5 mph - N/A   Clear
9:35 PM 57.2 °F - 48.2 °F 72% 29.91 in 7.0 mi Calm Calm - N/A   Clear
9:55 PM 55.4 °F - 48.2 °F 77% 29.91 in 6.0 mi ESE 4.6 mph - N/A   Clear
10:15 PM 53.6 °F - 46.4 °F 77% 29.91 in 6.0 mi SE 4.6 mph - N/A   Clear
10:35 PM 55.4 °F - 48.2 °F 77% 29.91 in 6.0 mi Calm Calm - N/A   Clear
11:15 PM 53.6 °F - 46.4 °F 77% 29.90 in 5.0 mi SSE 4.6 mph - N/A   Clear
11:35 PM 55.4 °F - 48.2 °F 77% 29.90 in 5.0 mi Calm Calm - N/A   Clear
11:55 PM 55.4 °F - 48.2 °F 77% 29.90 in 5.0 mi Calm Calm - N/A   Clear